Regional Weather Roundup
Issued by NWS Charleston, SC

Current Version | Previous Version | Graphics & Text | Print | Product List | Glossary On
Versions: 1 2 3 4 5 6 7 8 9 10 11 12 13 14 15 16 17 18 19 20 21 22 23 24 25 26 27 28 29 30 31 32 33 34 35 36 37 38 39 40 41 42 43 44 45 46 47 48 49 50
000
ASUS42 KCHS 181827
RWRCHS

Regional Weather Roundup
National Weather Service Charleston SC
100 PM EST SUN FEB 18 2018

NOTE: "fair" indicates few or no clouds below 12,000 feet with no
significant weather and/or obstructions to visibility.

Not all stations are quality controlled. Use data with caution,
especially dewpoint observations.

SCZ027-030-031-034>040-042>050-181900-
...Southeast South Carolina...

CITY           SKY/WX    TMP DP  RH WIND       PRES   REMARKS
N Charleston   CLOUDY    66  58  75 NE9       30.29S
6HR MIN TEMP:  61; 6HR MAX TEMP:  68;

Waterfront Prk   N/A     61  59  93 E15       30.15R
Mount Pleasant CLOUDY    63  52  67 NE8G21    30.31S
Johns Island   CLOUDY    63  55  77 NE14G21   30.30S
Pinopolis        N/A     61  55  82 E7        30.22R
Moncks Corner  CLOUDY    63  55  77 E7        30.30S HAZE
Summerville    CLOUDY    63  55  77 NE3       30.30F
Beaufort MCAS  CLOUDY    68  60  75 NE8       30.27F
6HR MIN TEMP:  64; 6HR MAX TEMP:  71;

Beaufort Arpt  CLOUDY    66  61  82 E7        30.27S HAZE
Hilton Head Is CLOUDY    68  61  77 NE6       30.28S
Walterboro     CLOUDY    63  54  72 NE9       30.30S
Allendale      MOCLDY    68  55  64 E6        30.26F

...Southern Midlands and Pee Dee...

CITY           SKY/WX    TMP DP  RH WIND       PRES   REMARKS
Georgetown     CLOUDY    59  52  77 E9        30.32F
Kingstree      CLOUDY    64  46  52 NE8       30.30F
Orangeburg     LGT RAIN  64  48  56 E8        30.30F
6HR MIN TEMP:  56; 6HR MAX TEMP:  66; 6HR PCP: TRACE;

Barnwell         N/A     68  54  60 VRB6G15   30.28F
Aiken          CLOUDY    63  46  55 E8        30.32F
Manning        DRIZZLE   63  28  27 MISG      30.30F
Columbia       PTSUNNY   66  48  52 E10       30.30F
6HR MIN TEMP:  54; 6HR MAX TEMP:  67;

Sumter         CLOUDY    65  44  47 NE10      30.29F
6HR MIN TEMP:  52; 6HR MAX TEMP:  65;

Florence       FAIR      66  44  45 NE9       30.32F
6HR MIN TEMP:  52; 6HR MAX TEMP:  66;

Myrtle Beach   PTSUNNY   60  52  74 E14       30.33S
N Myrtle Beach CLOUDY    60  52  74 E10       30.32R
6HR MIN TEMP:  57; 6HR MAX TEMP:  67;


$$

GAZ063-065-086>088-099>101-113>116-118-119-134>141-150-181900-
...Southeast Georgia...

CITY           SKY/WX    TMP DP  RH WIND       PRES   REMARKS
Savannah Arpt  CLOUDY    70  62  76 N3        30.26F
6HR MIN TEMP:  59; 6HR MAX TEMP:  70;

Hunter AAF     PTSUNNY   70  64  83 CALM      30.23F
6HR MIN TEMP:  58; 6HR MAX TEMP:  70;

Fort Stewart   CLOUDY    70  63  78 CALM      30.23F
6HR MIN TEMP:  63; 6HR MAX TEMP:  71;

Statesboro     CLOUDY    69  58  67 NE3       30.27S
Sylvania       CLOUDY    68  62  80 E5        30.27F
Claxton        CLOUDY    72  64  75 CALM      30.26S HAZE

...CSRA, Central and far Southeast Georgia...

CITY           SKY/WX    TMP DP  RH WIND       PRES   REMARKS
Thomson        CLOUDY    64  52  65 S7        30.33F
Augusta-Bush   CLOUDY    67  48  50 E6        30.28F
6HR MIN TEMP:  59; 6HR MAX TEMP:  68;

Augusta-Daniel CLOUDY    65  49  56 E9        30.29F
Swainsboro     CLOUDY    70  59  68 SE3       30.26F
Vidalia        CLOUDY    72  63  73 SE3       30.25F
Eastman        CLOUDY    73  55  52 CALM      30.27F
Hazlehurst     MOCLDY    72  60  66 CALM      30.24F
Alma           CLOUDY    76  64  66 VRB3      30.24F
6HR MIN TEMP:  65; 6HR MAX TEMP:  76;

Waycross       CLOUDY    78  60  53 W3        30.23F
Jesup          CLOUDY    73  63  68 CALM      30.25F
Baxley         CLOUDY    70  64  83 CALM      30.24F
Brunswick      FAIR      75  63  64 CALM      30.25F
Saint Simons   FAIR      76  64  66 NW6       30.25F
6HR MIN TEMP:  62; 6HR MAX TEMP:  76;


$$

SCZ027-028-034-036>038-045-046-048>050-GAZ119-141-181900-
...Lake and Supplemental Coastal Observations...

STATION/POSITION TIME  TEMP    WIND        PRES    WAVE   SWELL
                       AIR SEA DIR/SP/G            HT/PER HT/PER/DIR
                 (UTC) (F)     (DEG/KT/KT) (MB)    (FT/S) (FT/S/D)
Winyah Bay       1745   57      70/ 10     1027.0S
Lake Murray      1820   63      80/  6/ 10 1025.1
ACE Basin NERRS  1745   67      10/  2     1025.0S
Fort Pulaski     1800   67 58   70/  6/  7 1025.1
Sapelo Island    1800   75     350/  6     1024.0

$$

ANZ835-935-AMZ111-154-330-350-352-354-370-450-454-472-181900-
...C-MAN and Buoy Observations...

STATION/POSITION TIME  TEMP    WIND        PRES    WAVE   SWELL
                       AIR SEA DIR/SP/G            HT/PER HT/PER/DIR
                 (UTC) (F)     (DEG/KT/KT) (MB)    (FT/S) (FT/S/D)
Buoy 41004       1810   64 68   50/ 17/ 21 1025.0
Buoy 41008       1750   64 60   CALM  /  2 1024.3F   2/11   2/110/11
Folly Beach CMAN 1800   59      50/ 18/ 20 1026.5S
Capers Nearshore 1808   54 56   50/ 16/ 21 1025.6F
Fripp Nearshore  1808   58 57   90/  8/ 12 1024.6F


STATION/POSITION TIME  TEMP    WIND        PRES    WAVE   SWELL
                       AIR SEA DIR/SP/G            HT/PER HT/PER/DIR
                 (UTC) (F)     (DEG/KT/KT) (MB)    (FT/S) (FT/S/D)
5E St. Marys GA  1800      60                N/A     2/11   2/120/11
Frying Pan Buoy  1810   61 64   50/ 21/ 25 1026.3
Buoy 41025       1810   52 72   20/ 23/ 29 1028.8
Cape Lookout NC  1800           40/ 23/ 26 1028.7R
Buoy 41002       1750   70 73   20/ 19/ 23 1023.6F   4/10   2/140/10
Buoy 41010       NOT AVBL
St Augustine FL  1800   62 59   90/ 11/ 12 1024.9F


$$




USA.gov is the U.S. government's official web portal to all federal, state and local government web resources and services.